Regional Weather Roundup
Issued by NWS Sioux Falls, SD

Home | Current Version | Previous Version | Text Only | Print | Product List | Glossary Off
Versions: 1 2 3 4 5 6 7 8 9 10 11 12 13 14 15 16 17 18 19 20 21 22 23 24 25 26 27 28 29 30 31 32 33 34 35 36 37 38 39 40 41 42 43 44 45 46 47 48 49 50

000
ASUS43 KFSD 021702
RWRFSD

WEATHER ROUNDUP FOR SE SOUTH DAKOTA/SW MINNESOTA/NW IOWA
NATIONAL WEATHER SERVICE SIOUX FALLS SD
1100 AM CST MON MAR 02 2015

NOTE: "FAIR" INDICATES FEW OR NO CLOUDS BELOW 12,000 FEET WITH NO
SIGNIFICANT WEATHER AND OR OBSTRUCTIONS TO VISIBILITY.


SDZ038>040-050-052>070-021800-
SOUTHEAST SOUTH DAKOTA

CITY           SKY/WX    TMP DP  RH WIND       PRES   REMARKS
CHAMBERLAIN    NOT AVBL
HURON          MOSUNNY   27  17  66 S23G31    30.26F WCI  12
MADISON        FAIR      19  18  93 S18G24    30.32F WCI   4
MITCHELL       CLOUDY    30  14  51 SE22G30   30.29F WCI  17
SIOUX FALLS    CLOUDY    24  13  62 S14       30.36F WCI  12
WINNER         CLOUDY    36  12  37 S24G35    30.12F
YANKTON        PTSUNNY   28  12  50 SE17      30.36F WCI  16
$$

MNZ071-072-080-081-089-090-097-098-021800-
SOUTHWEST MINNESOTA

CITY           SKY/WX    TMP DP  RH WIND       PRES   REMARKS
FAIRMONT       SUNNY     19  12  73 S12       30.45S WCI   7
JACKSON        MOSUNNY   21  10  63 S12       30.43F WCI   9
LUVERNE        PTSUNNY   25  14  63 S15       30.39F WCI  12
MARSHALL       SUNNY     25  10  54 S14       30.40F WCI  13
MONTEVIDEO     SUNNY     25  10  54 S9G17     30.40F WCI  15
PIPESTONE      PTSUNNY   19  12  73 S16       30.35F WCI   5
REDWOOD FALLS  SUNNY     22  10  60 S13       30.43F WCI  10
WINDOM         MOSUNNY   19   9  63 S10       30.42F WCI   8
WORTHINGTON    MOSUNNY   19  10  68 S13G18    30.42F WCI   7
$$

IAZ001>003-012>014-020>022-031-032-NEZ013-014-SDZ071-021800-
NORTHWEST IOWA

CITY           SKY/WX    TMP DP  RH WIND       PRES   REMARKS
DENISON        CLOUDY    27  18  69 SE7G14    30.41F WCI  19
ESTHERVILLE    MOSUNNY   20  13  74 S10       30.44F WCI   9
SIOUX CITY     CLOUDY    29  17  61 SE14      30.41F WCI  18
SPENCER        SUNNY     23  11  60 S12       30.44F WCI  12
$$

ABBREVIATIONS USED IN REMARKS
   TC - TEMPERATURE IN CELSIUS
  WCI - WIND CHILL INDEX
   HX - HEAT INDEX
  VSB - VISIBILITY




USA.gov is the U.S. government's official web portal to all federal, state and local government web resources and services.